Showing default

LEMUR 2 LLOYD, 60577

Orbit data source: Space-Track

LEMUR 2 LLOYD, 60577 is an American payload satellite in SSO that was launched on Fri, 16 Aug 2024 UTC via an FALCON 9 launch vehicle from the Air Force Western Test Range (AFWTR). Payload-class satellites include a variety of spacecraft equipped with specific instruments for various scientific and technological missions. These include communications satellites like Starlink; space stations such as the ISS; scientific satellites like the Hubble; Earth observation satellites from companies like Planet Labs, Umbra, and HawkEye 360; GPS; miniature CubeSats for education and research; and military/defense satellites.

Loading next visibility...
Identifier
60577, 2024-149DP
Orbit
SSO
Country
Flag of USUS
Related business
Manufacturer
Spire/Glasgow
Mission
Operational Commercial Com/MetRO
Bus & Motor
CUBESAT 3U, Unknown motor
Mass
7.6 kg wet, 7.6 kg dry
Launch date (UTC)
2024-08-16 (2 years ago)
Launch vehicle
FALCON 9
Launch site
Air Force Western Test Range (AFWTR)
Object type
Payload
Rocket body
Debris
Shape & HBR
Box + 2 Pan, 0.5 m
Radar Cross Section
0.063 m², Medium (>0.1 m² and < 1m²)

Expand to show TLE details & history
Last TLE update: 9 hours ago

TLE from 9 hours ago
0 LEMUR 2 LLOYD
1 60577U 24149DP  26265.18540922  .00006922  00000-0  42043-3 0  9992
2 60577  97.6691 346.4490 0004054 161.0681 199.0700 15.10807216115038
Epoch: 2026-09-22T04:26Z
TLE epoch observation values (Epoch: 2026-09-22T04:26:59.356Z)
Latitude
-0.00001°
Longitude
-81.35283°
Altitude
539.456 km
Speed
7.591 km/s
True Right ascension
23h 05m 47s
True Declination
0° 00' 00"
Sunlit
Object was in full shadow at epoch
Visualization orbit readout
Latitude
Unknown
Longitude
Unknown
Altitude
Unknown
Speed
Unknown
Apparent Right ascension
Unknown
Apparent Declination
Unknown
Sunlit
N/A
Visualization observer readout
Local Sidereal Time
06:10:06
Azimuth
Unknown
Elevation
Unknown
Doppler factor
Unknown
Orbital elements
Apogee altitude
533.527 km
Perigee altitude
527.926 km
Semi-major axis
6,908.863 km
Eccentricity
0.00041
Inclination
97.6691°
RAAN
346.449°
Arg. of periapsis
161.0681°
True anomaly
199.05483°
Mean anomaly
199.07°
Eccentric anomaly
199.06241°
Mean motion
3.77949 °/min
Orbital period
95.25 mins
BSTAR
0.00042043
Loading maneuver chart data...
Computing Atmospheric mass density...

Documentation

Showing up to 5 results
|